Starlink 3568

operational
NORAD ID: 51856 Int'l Des: 2022-022 Owner: SPXS Country: US Constellation: starlink
LEOCIRCULAR

Über Starlink 3568

Beschreibung wird geladen...

Live-Position

3D-Globus wird geladen...

Nächste Überflüge

Höhenverlauf

Altitude vs Time

uPlot chart will show altitude changes over time

Zweizeiliger Elementsatz

1 51856U 22022E 25259.23745487 .00001516 00000-0 11331-3 0 9991
2 51856 53.2168 82.2778 0001477 91.5587 268.5575 15.08844666196710
Epoch: 16. Sept. 2025 • Age: 6 hours

Aktueller Status

Höhe 548.5 km
Geschwindigkeit 7.59 km/s
Subsatellitenpunkt -27.47°S, 117.04°E
Startdatum 3. März 2022
Alter 3.5 years
Typ internet

Technische Details

Klassifizierung Payload
Masse 297.00 kg
Trockenmasse 275.00 kg
Gesamtmasse 297.00 kg
Länge 0.20 m
Durchmesser 2.80 m
Spannweite 9.00 m
Form Box + pan
Hersteller SPXS
Bus-Typ Starlink
Phasenstatus In Orbit
Besitzer/Staat SPXS/US

Große Konstellationen

Loading constellations...